• In Latvia
  • List of Countries
  • For 7 days
  • Water Temperature
  • Satellite Maps
  • Weather Map
  • Weather Widgets
  • user-avatar
    Login

    Hourly Weather Larisa

    Today, 24 October, Tuesday

    Time Temperature Precipitation Wind Pressure Humidity
    00:00 +16°C° 0.5 mm 3 mps 743 mmHg 70%
    01:00 +14°C° 0.5 mm 3 mps 743 mmHg 70%
    02:00 +14°C° 0.3 mm 3 mps 743 mmHg 71%
    03:00 +14°C° 0.3 mm 3 mps 743 mmHg 72%
    04:00 +14°C° 0.3 mm 2 mps 743 mmHg 73%
    05:00 +14°C° 0 mm 2 mps 743 mmHg 73%
    06:00 +14°C° 0 mm 2 mps 744 mmHg 72%
    07:00 +14°C° 0 mm 2 mps 744 mmHg 71%
    08:00 +16°C° 0 mm 2 mps 744 mmHg 64%
    09:00 +17°C° 0 mm 2 mps 744 mmHg 57%
    10:00 +18°C° 0 mm 2 mps 745 mmHg 50%
    11:00 +19°C° 0.1 mm 2 mps 745 mmHg 48%
    12:00 +19°C° 0.1 mm 2 mps 745 mmHg 46%
    13:00 +20°C° 0.1 mm 2 mps 745 mmHg 43%
    14:00 +19°C° 0.2 mm 2 mps 745 mmHg 46%
    15:00 +19°C° 0.2 mm 2 mps 745 mmHg 49%
    16:00 +18°C° 0.2 mm 2 mps 745 mmHg 51%
    17:00 +17°C° 0.3 mm 3 mps 746 mmHg 55%
    18:00 +16°C° 0.3 mm 3 mps 747 mmHg 59%
    19:00 +16°C° 0.3 mm 3 mps 748 mmHg 63%
    20:00 +14°C° 0.2 mm 3 mps 748 mmHg 64%
    21:00 +14°C° 0.2 mm 3 mps 748 mmHg 65%
    22:00 +14°C° 0.2 mm 3 mps 749 mmHg 66%
    23:00 +13°C° 0.1 mm 3 mps 749 mmHg 67%

    Tomorrow, 25 October, Wednesday

    Time Temperature Precipitation Wind Pressure Humidity
    00:00 +13°C° 0.1 mm 3 mps 750 mmHg 68%
    01:00 +13°C° 0.1 mm 3 mps 750 mmHg 69%
    02:00 +12°C° 0 mm 3 mps 751 mmHg 70%
    03:00 +12°C° 0 mm 3 mps 751 mmHg 71%
    04:00 +12°C° 0 mm 3 mps 751 mmHg 72%
    05:00 +12°C° 0.1 mm 4 mps 752 mmHg 71%
    06:00 +12°C° 0.1 mm 4 mps 752 mmHg 70%
    07:00 +12°C° 0.1 mm 4 mps 753 mmHg 70%
    08:00 +13°C° 0.3 mm 4 mps 753 mmHg 67%
    09:00 +14°C° 0.3 mm 4 mps 754 mmHg 64%
    10:00 +17°C° 0.3 mm 4 mps 754 mmHg 61%
    11:00 +17°C° 0.1 mm 4 mps 754 mmHg 60%
    12:00 +18°C° 0.1 mm 4 mps 754 mmHg 59%
    13:00 +19°C° 0.1 mm 3 mps 754 mmHg 57%
    14:00 +18°C° 0.2 mm 3 mps 755 mmHg 60%
    15:00 +18°C° 0.2 mm 3 mps 755 mmHg 62%
    16:00 +18°C° 0.2 mm 2 mps 756 mmHg 64%
    17:00 +17°C° 0.4 mm 2 mps 756 mmHg 66%
    18:00 +16°C° 0.4 mm 2 mps 757 mmHg 69%
    19:00 +16°C° 0.4 mm 2 mps 758 mmHg 72%
    20:00 +16°C° 0.2 mm 2 mps 759 mmHg 72%
    21:00 +15°C° 0.2 mm 2 mps 759 mmHg 72%
    22:00 +15°C° 0.2 mm 2 mps 760 mmHg 72%
    23:00 +15°C° 0.1 mm 2 mps 760 mmHg 73%

    Day after tomorrow, 26 October, Thursday

    Time Temperature Precipitation Wind Pressure Humidity
    00:00 +15°C° 0.1 mm 2 mps 761 mmHg 75%
    01:00 +14°C° 0.1 mm 2 mps 761 mmHg 76%
    02:00 +14°C° 0 mm 2 mps 761 mmHg 76%
    03:00 +13°C° 0 mm 2 mps 761 mmHg 77%
    04:00 +13°C° 0 mm 2 mps 761 mmHg 78%
    05:00 +13°C° 0 mm 2 mps 761 mmHg 76%
    06:00 +14°C° 0 mm 2 mps 762 mmHg 74%
    07:00 +14°C° 0 mm 2 mps 762 mmHg 73%
    08:00 +15°C° 0 mm 2 mps 762 mmHg 67%
    09:00 +16°C° 0 mm 2 mps 762 mmHg 62%
    10:00 +17°C° 0 mm 2 mps 762 mmHg 57%
    11:00 +18°C° 0 mm 2 mps 762 mmHg 54%
    12:00 +20°C° 0 mm 1 mps 762 mmHg 52%
    13:00 +21°C° 0 mm 1 mps 761 mmHg 49%
    14:00 +20°C° 0 mm 1 mps 761 mmHg 51%
    15:00 +20°C° 0 mm 1 mps 761 mmHg 52%
    16:00 +20°C° 0 mm 1 mps 761 mmHg 54%
    17:00 +19°C° 0 mm 1 mps 761 mmHg 57%
    18:00 +18°C° 0 mm 1 mps 761 mmHg 60%
    19:00 +16°C° 0 mm 1 mps 761 mmHg 64%
    20:00 +16°C° 0 mm 1 mps 761 mmHg 64%
    21:00 +15°C° 0 mm 1 mps 761 mmHg 64%
    22:00 +15°C° 0 mm 1 mps 761 mmHg 65%
    23:00 +15°C° 0 mm 1 mps 761 mmHg 65%

    27 October, Friday

    Time Temperature Precipitation Wind Pressure Humidity
    00:00 +14°C° 0 mm 1 mps 761 mmHg 66%
    01:00 +14°C° 0 mm 1 mps 760 mmHg 66%
    02:00 +14°C° 0 mm 1 mps 760 mmHg 66%
    03:00 +14°C° 0 mm 1 mps 760 mmHg 66%
    04:00 +14°C° 0 mm 1 mps 759 mmHg 67%
    05:00 +14°C° 0 mm 1 mps 759 mmHg 65%
    06:00 +14°C° 0 mm 1 mps 759 mmHg 64%
    07:00 +15°C° 0 mm 1 mps 759 mmHg 62%
    08:00 +18°C° 0 mm 1 mps 759 mmHg 56%
    09:00 +20°C° 0 mm 1 mps 758 mmHg 49%
    10:00 +21°C° 0 mm 1 mps 758 mmHg 43%
    11:00 +22°C° 0 mm 1 mps 757 mmHg 40%
    12:00 +23°C° 0 mm 1 mps 756 mmHg 38%
    13:00 +24°C° 0 mm 1 mps 756 mmHg 35%
    14:00 +24°C° 0 mm 1 mps 755 mmHg 37%
    15:00 +23°C° 0 mm 1 mps 755 mmHg 39%
    16:00 +22°C° 0 mm 1 mps 754 mmHg 41%
    17:00 +21°C° 0 mm 1 mps 754 mmHg 44%
    18:00 +20°C° 0 mm 1 mps 754 mmHg 47%
    19:00 +19°C° 0 mm 1 mps 754 mmHg 50%
    20:00 +19°C° 0 mm 1 mps 753 mmHg 51%
    21:00 +18°C° 0 mm 1 mps 753 mmHg 53%
    22:00 +18°C° 0 mm 1 mps 753 mmHg 54%
    23:00 +18°C° 0 mm 1 mps 752 mmHg 53%

    28 October, Saturday

    Time Temperature Precipitation Wind Pressure Humidity
    00:00 +16°C° 0 mm 1 mps 752 mmHg 53%
    01:00 +16°C° 0 mm 1 mps 751 mmHg 53%
    02:00 +16°C° 0 mm 1 mps 751 mmHg 53%
    03:00 +16°C° 0 mm 1 mps 750 mmHg 54%
    04:00 +16°C° 0 mm 1 mps 750 mmHg 54%
    05:00 +16°C° 0 mm 1 mps 750 mmHg 54%
    06:00 +16°C° 0 mm 1 mps 750 mmHg 55%
    07:00 +16°C° 0 mm 1 mps 750 mmHg 55%
    08:00 +19°C° 0 mm 1 mps 750 mmHg 51%
    09:00 +21°C° 0 mm 1 mps 750 mmHg 46%
    10:00 +23°C° 0 mm 1 mps 750 mmHg 42%
    11:00 +23°C° 0 mm 2 mps 749 mmHg 41%
    12:00 +23°C° 0 mm 2 mps 749 mmHg 40%
    13:00 +24°C° 0 mm 2 mps 748 mmHg 40%
    14:00 +23°C° 0 mm 2 mps 748 mmHg 43%
    15:00 +21°C° 0 mm 2 mps 748 mmHg 46%
    16:00 +21°C° 0 mm 2 mps 748 mmHg 49%
    17:00 +19°C° 0 mm 2 mps 749 mmHg 53%
    18:00 +19°C° 0 mm 1 mps 749 mmHg 57%
    19:00 +18°C° 0 mm 1 mps 749 mmHg 61%
    20:00 +18°C° 0 mm 1 mps 749 mmHg 63%
    21:00 +16°C° 0 mm 1 mps 749 mmHg 64%
    22:00 +16°C° 0 mm 1 mps 748 mmHg 66%
    23:00 +16°C° 0 mm 1 mps 748 mmHg 67%

    29 October, Sunday

    Time Temperature Precipitation Wind Pressure Humidity
    00:00 +15°C° 0 mm 1 mps 748 mmHg 69%
    01:00 +15°C° 0 mm 1 mps 747 mmHg 70%
    02:00 +15°C° 0 mm 1 mps 747 mmHg 72%
    03:00 +15°C° 0 mm 1 mps 746 mmHg 73%
    04:00 +15°C° 0 mm 1 mps 746 mmHg 74%
    05:00 +15°C° 0 mm 1 mps 746 mmHg 73%
    06:00 +15°C° 0 mm 1 mps 745 mmHg 72%
    07:00 +16°C° 0 mm 1 mps 745 mmHg 72%
    08:00 +18°C° 0 mm 1 mps 745 mmHg 66%
    09:00 +20°C° 0 mm 1 mps 745 mmHg 60%
    10:00 +21°C° 0 mm 2 mps 744 mmHg 55%
    11:00 +21°C° 0 mm 2 mps 744 mmHg 52%
    12:00 +23°C° 0 mm 2 mps 743 mmHg 50%
    13:00 +24°C° 0 mm 2 mps 742 mmHg 48%
    14:00 +24°C° 0 mm 3 mps 742 mmHg 50%
    15:00 +22°C° 0 mm 3 mps 742 mmHg 52%
    16:00 +22°C° 0 mm 3 mps 741 mmHg 55%
    17:00 +21°C° 0 mm 3 mps 741 mmHg 59%
    18:00 +20°C° 0 mm 3 mps 741 mmHg 63%
    19:00 +19°C° 0 mm 2 mps 741 mmHg 67%
    20:00 +19°C° 0 mm 3 mps 741 mmHg 67%
    21:00 +19°C° 0 mm 3 mps 741 mmHg 68%
    22:00 +19°C° 0 mm 3 mps 741 mmHg 69%
    23:00 +19°C° 0.1 mm 4 mps 740 mmHg 69%

    30 October, Monday

    Time Temperature Precipitation Wind Pressure Humidity
    00:00 +19°C° 0.1 mm 4 mps 740 mmHg 70%
    01:00 +19°C° 0.1 mm 4 mps 740 mmHg 70%
    02:00 +19°C° 0.1 mm 4 mps 739 mmHg 71%
    03:00 +19°C° 0.1 mm 4 mps 739 mmHg 71%
    04:00 +18°C° 0.1 mm 4 mps 739 mmHg 72%
    05:00 +17°C° 0 mm 5 mps 739 mmHg 70%
    06:00 +17°C° 0 mm 5 mps 740 mmHg 69%
    07:00 +17°C° 0 mm 5 mps 740 mmHg 67%
    08:00 +17°C° 0 mm 6 mps 741 mmHg 58%
    09:00 +18°C° 0 mm 7 mps 742 mmHg 49%
    10:00 +18°C° 0 mm 8 mps 743 mmHg 40%
    11:00 +18°C° 0 mm 8 mps 743 mmHg 37%
    12:00 +20°C° 0 mm 7 mps 743 mmHg 34%
    13:00 +20°C° 0 mm 7 mps 743 mmHg 31%
    14:00 +18°C° 0 mm 7 mps 744 mmHg 33%
    15:00 +17°C° 0 mm 7 mps 744 mmHg 34%
    16:00 +16°C° 0 mm 7 mps 744 mmHg 36%
    17:00 +14°C° 0 mm 6 mps 745 mmHg 41%
    18:00 +13°C° 0 mm 6 mps 746 mmHg 45%
    19:00 +12°C° 0 mm 5 mps 746 mmHg 50%
    20:00 +12°C° 0 mm 4 mps 747 mmHg 53%
    21:00 +11°C° 0 mm 4 mps 748 mmHg 55%
    22:00 +11°C° 0 mm 4 mps 749 mmHg 58%
    23:00 +10°C° 0 mm 3 mps 749 mmHg 60%
    Show more